Location: Caltech
(34.1382°N, 118.1253°W)
Time: 15:07:52
(UTC-08:00)

AO-7 - Visible Passes

Search period start: 02 March 2015 00:00
Search period end: 12 March 2015 01:00
Orbit: 1440 x 1459 km, 101.5° (Epoch: 02 March)

Date Brightness Start Highest point End Pass type
(mag) Time Alt. Az. Time Alt. Az. Time Alt. Az.
02 Mar ? 03:24:39 10° NNE 03:32:20 42° E 03:40:05 10° S visible
02 Mar ? 05:17:34 10° N 05:25:04 39° WNW 05:32:26 10° SW visible
03 Mar ? 02:27:38 10° ENE 02:31:33 15° E 02:36:06 10° SE visible
03 Mar ? 04:17:08 10° NNE 04:25:29 89° WNW 04:33:46 10° SSW visible
04 Mar ? 03:17:52 10° NE 03:25:20 38° E 03:32:55 10° SSE visible
04 Mar ? 05:10:30 10° N 05:18:11 43° WNW 05:25:44 10° SW visible
05 Mar ? 02:21:34 10° ENE 02:24:26 13° E 02:28:06 10° ESE visible
05 Mar ? 04:10:12 10° NNE 04:18:32 83° ESE 04:26:51 10° SSW visible
06 Mar ? 03:11:06 10° NE 03:18:20 34° E 03:25:42 10° SSE visible
06 Mar ? 05:03:29 10° N 05:11:18 47° WNW 05:19:02 10° SW visible
07 Mar ? 02:16:06 10° ENE 02:17:20 11° E 02:19:27 10° ESE visible
07 Mar ? 04:03:17 10° NNE 04:11:36 76° ESE 04:19:53 10° SSW visible
08 Mar ? 04:04:23 10° NE 04:11:18 30° E 04:18:27 10° SSE visible
08 Mar ? 05:56:27 10° N 06:04:25 52° WNW 06:12:17 10° SW visible
09 Mar ? 04:56:23 10° NNE 05:04:39 69° ESE 05:12:54 10° S visible
10 Mar ? 03:57:42 10° NE 04:04:17 27° E 04:11:08 10° SSE visible
10 Mar ? 05:49:26 10° N 05:57:31 57° WNW 06:05:31 10° SW visible
11 Mar ? 04:49:30 10° NNE 04:57:42 62° ESE 05:05:53 10° S visible
